Location: B?dimalle
(17.1788°N, 80.5377°E)
Time: 12:00:56
(UTC+00:00)

Courier 1B Rocket - Pass Details

Date: 20 December 2025
Orbit: 920 x 1201 km, 28.2° (Epoch: 25 January)

Event Time Altitude Azimuth Distance (km) Brightness Sun altitude
Exits shadow 22:38:45 12° 196° (SSW) 2,649 7.2 -33.1°
Drops below altitude 10° 22:39:52 10° 187° (S) 2,771 7.5 -32.8°
Sets 22:44:09 0° 161° (SSE) 3,658 8.5 -31.9°
